﻿測定場所 (Monitoring sites),日付 (Measurement date),時間 (Measurement time),線量率 最大値 (max) μGy/h,線量率 最小値 (min) μGy/h,線量率 平均値 (average) μGy/h,
調布 (Chofu),2020-01-19,23:01～24:00,0.0302,0.0255,0.0279,
調布 (Chofu),2020-01-19,22:01～23:00,0.0295,0.0251,0.0277,
調布 (Chofu),2020-01-19,21:01～22:00,0.0295,0.0252,0.0276,
調布 (Chofu),2020-01-19,20:01～21:00,0.0300,0.0252,0.0274,
調布 (Chofu),2020-01-19,19:01～20:00,0.0296,0.0257,0.0273,
調布 (Chofu),2020-01-19,18:01～19:00,0.0301,0.0253,0.0271,
調布 (Chofu),2020-01-19,17:01～18:00,0.0287,0.0258,0.0273,
調布 (Chofu),2020-01-19,16:01～17:00,0.0297,0.0253,0.0272,
調布 (Chofu),2020-01-19,15:01～16:00,0.0290,0.0253,0.0272,
調布 (Chofu),2020-01-19,14:01～15:00,0.0300,0.0251,0.0274,
調布 (Chofu),2020-01-19,13:01～14:00,0.0295,0.0253,0.0275,
調布 (Chofu),2020-01-19,12:01～13:00,0.0300,0.0256,0.0274,
調布 (Chofu),2020-01-19,11:01～12:00,0.0296,0.0257,0.0277,
調布 (Chofu),2020-01-19,10:01～11:00,0.0297,0.0259,0.0280,
調布 (Chofu),2020-01-19,09:01～10:00,0.0293,0.0264,0.0279,
調布 (Chofu),2020-01-19,08:01～09:00,0.0308,0.0268,0.0285,
調布 (Chofu),2020-01-19,07:01～08:00,0.0307,0.0261,0.0286,
調布 (Chofu),2020-01-19,06:01～07:00,0.0301,0.0261,0.0282,
調布 (Chofu),2020-01-19,05:01～06:00,0.0295,0.0259,0.0276,
調布 (Chofu),2020-01-19,04:01～05:00,0.0294,0.0257,0.0276,
調布 (Chofu),2020-01-19,03:01～04:00,0.0294,0.0250,0.0275,
調布 (Chofu),2020-01-19,02:01～03:00,0.0301,0.0253,0.0276,
調布 (Chofu),2020-01-19,01:01～02:00,0.0306,0.0256,0.0275,
調布 (Chofu),2020-01-19,00:01～01:00,0.0298,0.0256,0.0277,
調布 (Chofu),2020-01-18,23:01～24:00,0.0321,0.0272,0.0293,
調布 (Chofu),2020-01-18,22:01～23:00,0.0336,0.0300,0.0317,
調布 (Chofu),2020-01-18,21:01～22:00,0.0322,0.0276,0.0298,
調布 (Chofu),2020-01-18,20:01～21:00,0.0324,0.0281,0.0300,
調布 (Chofu),2020-01-18,19:01～20:00,0.0336,0.0296,0.0314,
調布 (Chofu),2020-01-18,18:01～19:00,0.0348,0.0298,0.0324,
調布 (Chofu),2020-01-18,17:01～18:00,0.0369,0.0320,0.0344,
調布 (Chofu),2020-01-18,16:01～17:00,0.0405,0.0331,0.0360,
調布 (Chofu),2020-01-18,15:01～16:00,0.0401,0.0345,0.0363,
調布 (Chofu),2020-01-18,14:01～15:00,0.0408,0.0345,0.0373,
調布 (Chofu),2020-01-18,13:01～14:00,0.0417,0.0358,0.0378,
調布 (Chofu),2020-01-18,12:01～13:00,0.0413,0.0347,0.0374,
調布 (Chofu),2020-01-18,11:01～12:00,0.0423,0.0355,0.0379,
調布 (Chofu),2020-01-18,10:01～11:00,0.0434,0.0368,0.0401,
調布 (Chofu),2020-01-18,09:01～10:00,0.0457,0.0372,0.0414,
調布 (Chofu),2020-01-18,08:01～09:00,0.0438,0.0378,0.0412,
調布 (Chofu),2020-01-18,07:01～08:00,0.0427,0.0343,0.0380,
調布 (Chofu),2020-01-18,06:01～07:00,0.0373,0.0318,0.0346,
調布 (Chofu),2020-01-18,05:01～06:00,0.0339,0.0281,0.0301,
調布 (Chofu),2020-01-18,04:01～05:00,0.0340,0.0289,0.0315,
調布 (Chofu),2020-01-18,03:01～04:00,0.0353,0.0302,0.0325,
調布 (Chofu),2020-01-18,02:01～03:00,0.0389,0.0316,0.0347,
調布 (Chofu),2020-01-18,01:01～02:00,0.0424,0.0311,0.0368,
調布 (Chofu),2020-01-18,00:01～01:00,0.0336,0.0271,0.0298,
調布 (Chofu),2020-01-17,23:01～24:00,0.0306,0.0257,0.0283,
調布 (Chofu),2020-01-17,22:01～23:00,0.0300,0.0258,0.0279,
調布 (Chofu),2020-01-17,21:01～22:00,0.0294,0.0255,0.0274,
調布 (Chofu),2020-01-17,20:01～21:00,0.0291,0.0255,0.0273,
調布 (Chofu),2020-01-17,19:01～20:00,0.0296,0.0257,0.0275,
調布 (Chofu),2020-01-17,18:01～19:00,0.0295,0.0256,0.0277,
調布 (Chofu),2020-01-17,17:01～18:00,0.0293,0.0259,0.0275,
調布 (Chofu),2020-01-17,16:01～17:00,0.0291,0.0255,0.0276,
調布 (Chofu),2020-01-17,15:01～16:00,0.0300,0.0259,0.0280,
調布 (Chofu),2020-01-17,14:01～15:00,0.0299,0.0260,0.0280,
調布 (Chofu),2020-01-17,13:01～14:00,0.0302,0.0264,0.0284,
調布 (Chofu),2020-01-17,12:01～13:00,0.0306,0.0267,0.0286,
調布 (Chofu),2020-01-17,11:01～12:00,0.0309,0.0267,0.0291,
調布 (Chofu),2020-01-17,10:01～11:00,0.0316,0.0280,0.0297,
調布 (Chofu),2020-01-17,09:01～10:00,0.0325,0.0281,0.0303,
調布 (Chofu),2020-01-17,08:01～09:00,0.0326,0.0277,0.0302,
調布 (Chofu),2020-01-17,07:01～08:00,0.0320,0.0277,0.0296,
調布 (Chofu),2020-01-17,06:01～07:00,0.0315,0.0266,0.0286,
調布 (Chofu),2020-01-17,05:01～06:00,0.0308,0.0267,0.0286,
調布 (Chofu),2020-01-17,04:01～05:00,0.0307,0.0263,0.0285,
調布 (Chofu),2020-01-17,03:01～04:00,0.0302,0.0263,0.0282,
調布 (Chofu),2020-01-17,02:01～03:00,0.0307,0.0262,0.0284,
調布 (Chofu),2020-01-17,01:01～02:00,0.0309,0.0266,0.0285,
調布 (Chofu),2020-01-17,00:01～01:00,0.0302,0.0255,0.0285,
調布 (Chofu),2020-01-16,23:01～24:00,0.0303,0.0273,0.0288,
調布 (Chofu),2020-01-16,22:01～23:00,0.0313,0.0270,0.0288,
調布 (Chofu),2020-01-16,21:01～22:00,0.0308,0.0267,0.0284,
調布 (Chofu),2020-01-16,20:01～21:00,0.0292,0.0259,0.0278,
調布 (Chofu),2020-01-16,19:01～20:00,0.0298,0.0253,0.0275,
調布 (Chofu),2020-01-16,18:01～19:00,0.0289,0.0245,0.0273,
調布 (Chofu),2020-01-16,17:01～18:00,0.0298,0.0252,0.0275,
調布 (Chofu),2020-01-16,16:01～17:00,0.0297,0.0253,0.0272,
調布 (Chofu),2020-01-16,15:01～16:00,0.0293,0.0249,0.0274,
調布 (Chofu),2020-01-16,14:01～15:00,0.0296,0.0257,0.0274,
調布 (Chofu),2020-01-16,13:01～14:00,0.0290,0.0258,0.0274,
調布 (Chofu),2020-01-16,12:01～13:00,0.0294,0.0262,0.0279,
調布 (Chofu),2020-01-16,11:01～12:00,0.0301,0.0256,0.0278,
調布 (Chofu),2020-01-16,10:01～11:00,0.0299,0.0257,0.0277,
調布 (Chofu),2020-01-16,09:01～10:00,0.0296,0.0255,0.0277,
調布 (Chofu),2020-01-16,08:01～09:00,0.0292,0.0263,0.0277,
調布 (Chofu),2020-01-16,07:01～08:00,0.0293,0.0258,0.0276,
調布 (Chofu),2020-01-16,06:01～07:00,0.0297,0.0257,0.0277,
調布 (Chofu),2020-01-16,05:01～06:00,0.0296,0.0261,0.0279,
調布 (Chofu),2020-01-16,04:01～05:00,0.0292,0.0258,0.0275,
調布 (Chofu),2020-01-16,03:01～04:00,0.0292,0.0262,0.0277,
調布 (Chofu),2020-01-16,02:01～03:00,0.0292,0.0256,0.0276,
調布 (Chofu),2020-01-16,01:01～02:00,0.0290,0.0256,0.0275,
調布 (Chofu),2020-01-16,00:01～01:00,0.0295,0.0257,0.0273,
調布 (Chofu),2020-01-15,23:01～24:00,0.0286,0.0259,0.0274,
調布 (Chofu),2020-01-15,22:01～23:00,0.0293,0.0261,0.0277,
調布 (Chofu),2020-01-15,21:01～22:00,0.0299,0.0250,0.0276,
調布 (Chofu),2020-01-15,20:01～21:00,0.0297,0.0250,0.0279,
調布 (Chofu),2020-01-15,19:01～20:00,0.0310,0.0268,0.0288,
調布 (Chofu),2020-01-15,18:01～19:00,0.0369,0.0290,0.0330,
調布 (Chofu),2020-01-15,17:01～18:00,0.0484,0.0357,0.0418,
調布 (Chofu),2020-01-15,16:01～17:00,0.0430,0.0265,0.0297,
調布 (Chofu),2020-01-15,15:01～16:00,0.0303,0.0265,0.0282,
調布 (Chofu),2020-01-15,14:01～15:00,0.0308,0.0271,0.0290,
調布 (Chofu),2020-01-15,13:01～14:00,0.0333,0.0284,0.0305,
調布 (Chofu),2020-01-15,12:01～13:00,0.0376,0.0309,0.0341,
調布 (Chofu),2020-01-15,11:01～12:00,0.0367,0.0307,0.0338,
調布 (Chofu),2020-01-15,10:01～11:00,0.0348,0.0297,0.0322,
調布 (Chofu),2020-01-15,09:01～10:00,0.0379,0.0319,0.0353,
調布 (Chofu),2020-01-15,08:01～09:00,0.0367,0.0310,0.0340,
調布 (Chofu),2020-01-15,07:01～08:00,0.0366,0.0307,0.0340,
調布 (Chofu),2020-01-15,06:01～07:00,0.0395,0.0308,0.0352,
調布 (Chofu),2020-01-15,05:01～06:00,0.0429,0.0357,0.0393,
調布 (Chofu),2020-01-15,04:01～05:00,0.0534,0.0404,0.0457,
調布 (Chofu),2020-01-15,03:01～04:00,0.0521,0.0410,0.0471,
調布 (Chofu),2020-01-15,02:01～03:00,0.0435,0.0308,0.0361,
調布 (Chofu),2020-01-15,01:01～02:00,0.0340,0.0279,0.0314,
調布 (Chofu),2020-01-15,00:01～01:00,0.0322,0.0273,0.0295,
調布 (Chofu),2020-01-14,23:01～24:00,0.0321,0.0274,0.0290,
調布 (Chofu),2020-01-14,22:01～23:00,0.0308,0.0267,0.0291,
調布 (Chofu),2020-01-14,21:01～22:00,0.0309,0.0260,0.0287,
調布 (Chofu),2020-01-14,20:01～21:00,0.0295,0.0258,0.0281,
調布 (Chofu),2020-01-14,19:01～20:00,0.0302,0.0262,0.0278,
調布 (Chofu),2020-01-14,18:01～19:00,0.0299,0.0262,0.0279,
調布 (Chofu),2020-01-14,17:01～18:00,0.0293,0.0257,0.0276,
調布 (Chofu),2020-01-14,16:01～17:00,0.0298,0.0255,0.0276,
調布 (Chofu),2020-01-14,15:01～16:00,0.0301,0.0256,0.0276,
調布 (Chofu),2020-01-14,14:01～15:00,0.0305,0.0250,0.0278,
調布 (Chofu),2020-01-14,13:01～14:00,0.0304,0.0262,0.0282,
調布 (Chofu),2020-01-14,12:01～13:00,0.0301,0.0267,0.0283,
調布 (Chofu),2020-01-14,11:01～12:00,0.0308,0.0263,0.0286,
調布 (Chofu),2020-01-14,10:01～11:00,0.0305,0.0260,0.0284,
調布 (Chofu),2020-01-14,09:01～10:00,0.0310,0.0273,0.0289,
調布 (Chofu),2020-01-14,08:01～09:00,0.0312,0.0267,0.0289,
調布 (Chofu),2020-01-14,07:01～08:00,0.0308,0.0269,0.0285,
調布 (Chofu),2020-01-14,06:01～07:00,0.0306,0.0262,0.0286,
調布 (Chofu),2020-01-14,05:01～06:00,0.0310,0.0267,0.0285,
調布 (Chofu),2020-01-14,04:01～05:00,0.0308,0.0258,0.0287,
調布 (Chofu),2020-01-14,03:01～04:00,0.0309,0.0269,0.0286,
調布 (Chofu),2020-01-14,02:01～03:00,0.0302,0.0271,0.0285,
調布 (Chofu),2020-01-14,01:01～02:00,0.0311,0.0265,0.0286,
調布 (Chofu),2020-01-14,00:01～01:00,0.0303,0.0270,0.0284,
調布 (Chofu),2020-01-13,23:01～24:00,0.0298,0.0262,0.0281,
調布 (Chofu),2020-01-13,22:01～23:00,0.0309,0.0259,0.0280,
調布 (Chofu),2020-01-13,21:01～22:00,0.0303,0.0260,0.0280,
調布 (Chofu),2020-01-13,20:01～21:00,0.0297,0.0263,0.0281,
調布 (Chofu),2020-01-13,19:01～20:00,0.0301,0.0266,0.0285,
調布 (Chofu),2020-01-13,18:01～19:00,0.0300,0.0260,0.0280,
調布 (Chofu),2020-01-13,17:01～18:00,0.0303,0.0258,0.0281,
調布 (Chofu),2020-01-13,16:01～17:00,0.0300,0.0265,0.0281,
調布 (Chofu),2020-01-13,15:01～16:00,0.0304,0.0257,0.0282,
調布 (Chofu),2020-01-13,14:01～15:00,0.0298,0.0264,0.0281,
調布 (Chofu),2020-01-13,13:01～14:00,0.0303,0.0262,0.0283,
調布 (Chofu),2020-01-13,12:01～13:00,0.0300,0.0267,0.0288,
調布 (Chofu),2020-01-13,11:01～12:00,0.0313,0.0272,0.0291,
調布 (Chofu),2020-01-13,10:01～11:00,0.0314,0.0276,0.0294,
調布 (Chofu),2020-01-13,09:01～10:00,0.0330,0.0283,0.0307,
調布 (Chofu),2020-01-13,08:01～09:00,0.0335,0.0297,0.0316,
調布 (Chofu),2020-01-13,07:01～08:00,0.0336,0.0296,0.0313,
調布 (Chofu),2020-01-13,06:01～07:00,0.0327,0.0288,0.0309,
調布 (Chofu),2020-01-13,05:01～06:00,0.0339,0.0287,0.0309,
調布 (Chofu),2020-01-13,04:01～05:00,0.0332,0.0287,0.0306,
調布 (Chofu),2020-01-13,03:01～04:00,0.0325,0.0278,0.0300,
調布 (Chofu),2020-01-13,02:01～03:00,0.0321,0.0277,0.0296,
調布 (Chofu),2020-01-13,01:01～02:00,0.0308,0.0265,0.0287,
調布 (Chofu),2020-01-13,00:01～01:00,0.0306,0.0272,0.0287,
